South Burlington, VT

2:41 AM EDT on August 24, 2016 (GMT -0400)
Burlington International

Weather History for KBTV - February, 2012

Change the Weather History Date:

Monday, February 6, 2012

  Actual Average Record
Temperature  
Mean Temperature 38 °F 20 °F  
Max Temperature 50 °F 29 °F 50 °F (2005)
Min Temperature 26 °F 11 °F -24 °F (1993)
Degree Days  
Heating Degree Days 27 45  
Month to date heating degree days 222 274  
Since 1 July heating degree days 3726 4468  
Cooling Degree Days 0 0  
Month to date cooling degree days 0 0  
Year to date cooling degree days 0 0  
Moisture  
Dew Point 22 °F    
Average Humidity 49    
Maximum Humidity 63    
Minimum Humidity 34    
Precipitation  
Precipitation 0.00 in 0.06 in 0.67 in (2008)
Month to date precipitation 0.18 0.38  
Year to date precipitation 2.14 2.44  
Snow  
Snow 0.00 in 0.60 in 11.30 in (2008)
Month to date snowfall 0.8 3.6  
Since 1 July snowfall 26.2 48.0  
Snow Depth 0.00 in    
Sea Level Pressure  
Sea Level Pressure 29.88 in    
Wind  
Wind Speed 10 mph (SW)    
Max Wind Speed 20 mph    
Max Gust Speed 25 mph    
Visibility 10 miles    
Events      
T = Trace of Precipitation, MM = Missing Value Source: NWS Daily Summary

Daily Weather History Graph

Daily Weather History Graph

Search for Another Location

Airport or City:

Trip Planner

Search our weather history database for the weather conditions in past years. The results will help you decide how hot, cold, wet, or windy it might be!

Date:

Astronomy

Feb. 06, 2012 Rise Set
Actual Time 7:05 AM EST 5:08 PM EST
Civil Twilight 6:35 AM EST 5:38 PM EST
Nautical Twilight 6:00 AM EST 6:13 PM EST
Astronomical Twilight 5:26 AM EST 6:47 PM EST
Moon 4:08 PM EST (2/6) 5:57 AM EST (2/6)
Length of Visible Light 11h 03m
Length of Day
10h 02m
Waxing Gibbous, 98% of the Moon is Illuminated
Feb 6
Waxing Gibbous
Feb 7
Full
Feb 14
Last Quarter
Feb 21
New
Feb 29
First Quarter

Hourly Weather History & Observations

Time (EST) Temp. Windchill Dew Point Humidity Pressure Visibility Wind Dir Wind Speed Gust Speed Precip Events Conditions
12:54 AM 27.0 °F 18.0 °F 15.1 °F 61% 30.00 in 9.0 mi South 9.2 mph - N/A   Overcast
1:54 AM 27.0 °F 16.1 °F 16.0 °F 63% 29.97 in 10.0 mi South 12.7 mph 19.6 mph N/A   Partly Cloudy
2:54 AM 28.0 °F 17.0 °F 17.1 °F 63% 29.95 in 10.0 mi South 13.8 mph - N/A   Clear
3:54 AM 30.0 °F 20.5 °F 18.0 °F 61% 29.95 in 10.0 mi South 11.5 mph - N/A   Overcast
4:54 AM 30.0 °F 21.7 °F 19.0 °F 64% 29.94 in 10.0 mi South 9.2 mph - N/A   Overcast
5:54 AM 30.0 °F 21.7 °F 19.0 °F 64% 29.93 in 10.0 mi South 9.2 mph - N/A   Overcast
6:54 AM 30.9 °F 21.7 °F 19.9 °F 64% 29.91 in 9.0 mi South 11.5 mph 19.6 mph N/A   Overcast
7:54 AM 32.0 °F 24.2 °F 21.0 °F 64% 29.91 in 9.0 mi South 9.2 mph 18.4 mph N/A   Mostly Cloudy
8:54 AM 33.1 °F 23.0 °F 21.9 °F 64% 29.91 in 10.0 mi South 15.0 mph - N/A   Mostly Cloudy
9:54 AM 36.0 °F 27.1 °F 23.0 °F 59% 29.90 in 10.0 mi South 13.8 mph - N/A   Mostly Cloudy
10:54 AM 37.9 °F 29.6 °F 25.0 °F 60% 29.88 in 10.0 mi South 13.8 mph 21.9 mph N/A   Partly Cloudy
11:54 AM 39.9 °F 33.4 °F 25.0 °F 55% 29.86 in 10.0 mi South 10.4 mph 19.6 mph N/A   Mostly Cloudy
12:54 PM 44.1 °F 36.2 °F 25.0 °F 47% 29.81 in 10.0 mi South 18.4 mph 25.3 mph N/A   Scattered Clouds
1:54 PM 46.0 °F 41.0 °F 25.0 °F 44% 29.80 in 10.0 mi SSW 10.4 mph - N/A   Partly Cloudy
2:54 PM 48.9 °F - 24.1 °F 38% 29.79 in 10.0 mi Calm Calm - N/A   Clear
3:54 PM 48.9 °F - 21.9 °F 35% 29.79 in 10.0 mi WNW 6.9 mph - N/A   Clear
4:54 PM 46.9 °F - 21.9 °F 37% 29.81 in 10.0 mi WNW 6.9 mph - N/A   Partly Cloudy
5:54 PM 41.0 °F 37.1 °F 23.0 °F 49% 29.84 in 10.0 mi NNW 5.8 mph - N/A   Clear
6:54 PM 42.1 °F 35.7 °F 25.0 °F 51% 29.86 in 10.0 mi WNW 11.5 mph - N/A   Clear
7:54 PM 39.9 °F 35.1 °F 25.0 °F 55% 29.88 in 10.0 mi WNW 6.9 mph - N/A   Clear
8:54 PM 39.9 °F 35.1 °F 26.1 °F 58% 29.88 in 10.0 mi NW 6.9 mph - N/A   Mostly Cloudy
9:54 PM 39.0 °F 33.4 °F 26.1 °F 60% 29.88 in 10.0 mi West 8.1 mph - N/A   Mostly Cloudy
10:54 PM 39.9 °F 34.5 °F 27.0 °F 60% 29.87 in 10.0 mi WNW 8.1 mph - N/A   Mostly Cloudy
11:54 PM 39.0 °F 32.8 °F 27.0 °F 62% 29.89 in 10.0 mi West 9.2 mph - N/A   Overcast